Jackson Hawkins Field, MS

3:34 PM CDT on October 19, 2017 (GMT -0500)
Hawkins

Weather History for KHKS - January, 2013

Change the Weather History Date:

Sunday, January 20, 2013

  Actual Average (KJAN) Record (KJAN)
Temperature  
Mean Temperature 49 °F -  
Max Temperature 64 °F 53 °F 81 °F (1935)
Min Temperature 34 °F 33 °F 2 °F (1985)
Degree Days  
Heating Degree Days 16    
Moisture  
Dew Point 37 °F    
Average Humidity 76    
Maximum Humidity 100    
Minimum Humidity 34    
Precipitation  
Precipitation 0.00 in - - ()
Sea Level Pressure  
Sea Level Pressure 30.21 in    
Wind  
Wind Speed 0 mph (WNW)    
Max Wind Speed 5 mph    
Max Gust Speed -    
Visibility 7 miles    
Events      
Averages and records for this station are not official NWS values.
T = Trace of Precipitation, MM = Missing Value Source: NWS Daily Summary

Daily Weather History Graph

Daily Weather History Graph

Search for Another Location

Airport or City:

Trip Planner

Search our weather history database for the weather conditions in past years. The results will help you decide how hot, cold, wet, or windy it might be!

Date:

Astronomy

Jan. 20, 2013 Rise Set
Actual Time 7:00 AM CST 5:23 PM CST
Civil Twilight 6:34 AM CST 5:49 PM CST
Nautical Twilight 6:04 AM CST 6:19 PM CST
Astronomical Twilight 5:35 AM CST 6:48 PM CST
Moon 12:23 PM CST (1/20) 1:35 AM CST (1/20)
Length of Visible Light 11h 15m
Length of Day
10h 22m
Waxing Gibbous, 66% of the Moon is Illuminated
Jan 20
Waxing Gibbous
Jan 26
Full
Feb 3
Last Quarter
Feb 10
New
Feb 17
First Quarter

Hourly Weather History & Observations

Time (CST) Temp. Dew Point Humidity Pressure Visibility Wind Dir Wind Speed Gust Speed Precip Events Conditions
12:53 AM 42.1 °F 39.0 °F 89% 30.24 in 9.0 mi Calm Calm - N/A   Clear
1:53 AM 41.0 °F 37.9 °F 89% 30.25 in 6.0 mi Calm Calm - N/A   Clear
2:48 AM 39.2 °F 37.4 °F 93% 30.26 in 1.8 mi Calm Calm - N/A   Clear
2:53 AM 37.9 °F 37.0 °F 97% 30.25 in 2.0 mi Calm Calm - N/A   Clear
3:03 AM 37.4 °F 35.6 °F 93% 30.26 in 7.0 mi Calm Calm - N/A   Clear
3:53 AM 37.0 °F 36.0 °F 96% 30.25 in 1.8 mi Calm Calm - N/A   Clear
4:05 AM 37.4 °F 35.6 °F 93% 30.26 in 3.0 mi Calm Calm - N/A   Clear
4:53 AM 36.0 °F 35.1 °F 97% 30.23 in 3.0 mi Calm Calm - N/A   Clear
5:10 AM 35.6 °F 35.6 °F 100% 30.25 in 1.5 mi Calm Calm - N/A   Clear
5:20 AM 35.6 °F 33.8 °F 93% 30.25 in 4.0 mi Calm Calm - N/A   Clear
5:53 AM 36.0 °F 34.0 °F 93% 30.24 in 7.0 mi Calm Calm - N/A   Clear
6:38 AM 35.6 °F 33.8 °F 93% 30.26 in 1.8 mi Calm Calm - N/A   Clear
6:50 AM 35.6 °F 33.8 °F 93% 30.26 in 3.0 mi Calm Calm - N/A   Clear
6:53 AM 34.0 °F 33.1 °F 96% 30.25 in 6.0 mi Calm Calm - N/A   Clear
7:53 AM 36.0 °F 34.0 °F 93% 30.26 in 9.0 mi Calm Calm - N/A   Unknown
8:53 AM 45.0 °F 42.1 °F 90% 30.27 in 7.0 mi Calm Calm - N/A   Clear
9:53 AM 53.1 °F 42.1 °F 66% 30.27 in 10.0 mi Calm Calm - N/A   Clear
10:53 AM 57.9 °F 37.0 °F 46% 30.25 in 10.0 mi Calm Calm - N/A   Clear
11:53 AM 61.0 °F 37.0 °F 41% 30.22 in 10.0 mi Variable 4.6 mph - N/A   Clear
12:53 PM 63.0 °F 37.0 °F 38% 30.19 in 10.0 mi Calm Calm - N/A   Clear
1:53 PM 64.0 °F 37.0 °F 37% 30.16 in 10.0 mi Calm Calm - N/A   Clear
2:53 PM 64.0 °F 37.0 °F 37% 30.15 in 10.0 mi Calm Calm - N/A   Clear
3:53 PM 64.0 °F 35.1 °F 34% 30.14 in 10.0 mi WNW 3.5 mph - N/A   Clear
4:53 PM 63.0 °F 37.0 °F 38% 30.14 in 10.0 mi NW 3.5 mph - N/A   Clear
5:53 PM 57.9 °F 39.9 °F 51% 30.14 in 6.0 mi Calm Calm - N/A   Haze
6:53 PM 52.0 °F 39.9 °F 63% 30.15 in 10.0 mi Calm Calm - N/A   Clear
7:53 PM 48.9 °F 39.9 °F 71% 30.16 in 10.0 mi WNW 4.6 mph - N/A   Clear
8:53 PM 46.0 °F 39.9 °F 79% 30.16 in 10.0 mi Calm Calm - N/A   Clear
9:53 PM 45.0 °F 39.9 °F 82% 30.17 in 10.0 mi Calm Calm - N/A   Clear
10:53 PM 43.0 °F 39.0 °F 86% 30.17 in 10.0 mi Calm Calm - N/A   Clear
11:53 PM 41.0 °F 37.9 °F 89% 30.15 in 10.0 mi Calm Calm - N/A   Clear